User: anonymous   Login
Location: *
(58.7167°N, 26.1833°E)
Time: 20:04:28
(UTC+00:00)
Language:

Cosmos 1697 Rocket - Orbit

View from above orbital plane
View from above orbital plane
View from above satellite
View from above satellite

Ground track
Ground track

The orbit data is extracted from the following two-line orbital elements,

1 16182U 85097B   19290.50703328  .00000210  00000-0  13011-3 0  9998
2 16182  71.0055  14.7717 0009064 227.4120 246.2933 14.16246390756892
Epoch (UTC): 17 October 2019 12:10:07
Eccentricity: 0.0009064
inclination: 71.0055°
perigee height: 831 km
apogee height: 844 km
right ascension of ascending node: 14.7717°
argument of perigee: 227.4120°
revolutions per day: 14.16246390
mean anomaly at epoch: 246.2933°
orbit number at epoch: 75689

The dashed part of the orbit path shows where the satellite is in the earth's shadow,  

DLR